7 * 24
多渠道服务支持
STARLINK-37313(NORAD编号68790)是美国SpaceX公司星链(Starlink)星座的一颗低轨互联网通信卫星,属于第二代星链组网卫星,旨在为全球提供高速低延迟宽带互联网服务。 该卫星运行在近地轨道,采用成熟的星链技术设计,配备可展开太阳能阵列与空间激光互连设备,支持动态波束调整,提升网络吞吐量与覆盖稳定性。它由SpaceX猎鹰9号火箭发射入轨,补充星链星座的在轨容量,服务全球个人用户、企业及偏远地区网络接入需求,是星链大规模星座部署中的组成单元。
美国
(US)
| 数据来源 | 国际轨道数据 |
| 星历时间: | 2026-05-24T06:38:26+0800 1天前 查看轨道信息 |
| 半长轴: | 6722.094km |
| 偏心率: | 0.0001019 |
| 轨道倾角: | 97.285° |
| 近地点辐角 | 65.743° |
| 升交点赤经 | 180.784° |
| 平近点角 | 294.395° |
| 近地点: | 343.272km |
| 远地点: | 344.642km |
| 周期: | 91.415分钟 |
| 每日圈数: | 15.752372 |